#timestamp,LO_Frequency,Hit,StdDev 
1570971615.5,286047010.1,N
1570971635.3,286047010.6,N
1570971655.2,286047010.8,N
1570971675.0,286047008.1,N
1570971675.9,286047008.1,N
1570971695.8,286047009.4,N
1570971715.6,286047012.4,Y
1570971735.4,286047001.4,P
1570971755.3,286047001.6,N
1570971775.1,286047000.0,N
1570971795.8,286047002.5,N
1570971815.7,286047000.3,N
1570971835.5,286047002.8,N
1570971855.4,286047002.1,N
1570971875.2,286047002.5,N
1570971895.0,286047000.6,N
1570971895.9,286047000.6,N
1570971915.8,286046998.4,N
1570971935.6,286047000.8,N
1570971955.4,286046999.9,N
1570971975.3,286046998.2,N
1570971995.1,286046996.8,N
1570972015.9,286046997.2,N
1570972035.7,286046995.0,N
1570972055.5,286046997.3,N
1570972075.4,286046997.2,N
1570972095.2,286046999.1,N
1570972115.0,286047001.0,N
1570972115.9,286047001.0,N
1570972135.8,286046998.4,N
1570972155.6,286046997.8,N
1570972175.5,286047000.4,N
1570972195.3,286047000.5,N
1570972215.1,286047000.2,N
1570972235.9,286047000.3,N
1570972255.7,286047000.9,N
1570972275.5,286047000.2,N
1570972295.4,286047002.8,N
1570972315.2,286047000.2,N
1570972335.1,286047002.5,N
1570972336.0,286047002.5,N
1570972355.8,286047002.1,N
1570972375.6,286047001.9,N
1570972395.5,286047004.3,N
1570972415.3,286046999.7,N
1570972435.1,286047001.4,N
1570972455.9,286047003.7,N
1570972475.7,286047005.2,N
1570972495.6,286047002.9,N
1570972515.4,286047006.0,N
1570972535.2,286047003.6,N
1570972555.1,286047004.0,N
1570972556.0,286047004.0,N
1570972575.8,286047000.2,N
1570972595.7,286047000.4,N
1570972615.5,286047001.2,N
1570972635.3,286046998.2,N
1570972655.2,286046998.9,N
1570972675.9,286046999.3,N
1570972695.7,286046996.5,N
1570972715.6,286046995.8,N
1570972735.4,286046994.5,N
1570972755.3,286046991.7,Y
1570972775.1,286046990.5,P
1570972776.0,286046990.5,N
1570972795.8,286046990.4,N
1570972815.7,286046990.2,N
1570972835.5,286046994.4,N
1570972855.4,286046995.6,N
1570972875.2,286046995.5,N
1570972895.0,286046993.6,N
1570972895.9,286046993.6,N
1570972915.8,286046994.4,N
1570972935.6,286046994.4,N
1570972955.4,286046993.5,N
1570972975.3,286046993.8,N
1570972995.1,286046993.5,N
1570973015.9,286046997.5,N
1570973035.7,286046996.5,N
1570973055.5,286046999.6,N
1570973075.4,286046995.4,N
1570973095.2,286046997.5,N
1570973115.1,286046996.2,N
1570973116.0,286046996.2,N
1570973135.8,286046994.2,N
1570973155.6,286046995.9,N
1570973175.5,286046993.7,N
1570973195.3,286046995.8,N
1570973215.1,286046996.2,N
1570973235.9,286046995.8,N
1570973255.7,286046997.9,N
1570973275.5,286046997.7,N
1570973295.4,286046995.5,N
1570973315.2,286046995.3,N
1570973335.1,286046994.9,N
1570973336.0,286046994.9,N
1570973355.8,286046999.2,N
1570973375.6,286046999.3,N
1570973395.5,286046995.4,N
1570973415.3,286046996.1,N
1570973435.1,286046995.5,N
1570973455.9,286046994.5,Y
1570973475.7,286046999.0,P
1570973495.6,286047002.2,N
1570973515.4,286047003.9,N
1570973535.2,286047005.9,N
1570973555.1,286047005.5,N
1570973556.0,286047005.5,N
1570973575.8,286047004.5,N
1570973595.6,286047005.1,N
1570973615.5,286047009.1,N
1570973635.3,286047008.8,N
1570973655.2,286047006.4,N
1570973675.9,286047004.8,N
1570973695.7,286047007.5,N
1570973715.6,286047003.8,N
1570973735.4,286047002.6,N
1570973755.2,286047001.1,N
1570973775.1,286046998.2,N
1570973776.0,286046998.2,N
1570973795.8,286046998.7,N
1570973815.7,286046998.9,N
1570973835.5,286046996.7,N
1570973855.3,286046996.8,N
1570973875.2,286046997.9,N
1570973895.0,286046997.6,N
1570973895.9,286046997.6,N
1570973915.7,286046997.6,N
1570973935.6,286046995.3,N
1570973955.4,286046994.9,N
1570973975.3,286046995.7,N
1570973995.1,286046994.2,N
1570973996.0,286046994.2,N
1570974015.8,286046993.9,N
1570974035.7,286046993.4,N
1570974055.5,286046995.9,N
1570974075.3,286046996.2,N
1570974095.2,286046995.4,N
1570974115.0,286046995.8,N
1570974115.9,286046995.8,N
1570974135.8,286046996.2,N
1570974155.6,286046995.5,N
1570974175.4,286046996.7,N
1570974195.3,286046999.2,N
1570974215.1,286046997.5,N
1570974235.8,286046998.0,N
1570974255.7,286046997.9,N
1570974275.5,286046995.5,N
1570974295.4,286046995.2,Y
1570974315.2,286046998.5,P
1570974335.0,286046998.2,N
1570974335.9,286046998.2,N
1570974355.8,286046999.5,N
1570974375.6,286046999.0,N
1570974395.4,286046998.3,N
1570974415.3,286046998.3,N
1570974435.1,286047001.2,N
1570974455.9,286047001.0,N
1570974475.7,286047000.4,N
1570974495.5,286046998.5,N
1570974515.4,286046998.7,N
1570974535.2,286046998.3,N
1570974555.0,286046998.5,N
1570974555.9,286046998.5,N
1570974575.8,286047000.4,N
1570974595.6,286047001.5,N
1570974615.5,286047004.4,Y
1570974635.3,286047001.5,P
1570974655.1,286046999.8,N
1570974675.9,286046999.7,N
1570974695.7,286047004.2,Y
1570974715.5,286047006.8,P
1570974735.4,286047009.0,N
1570974755.2,286047008.4,N
1570974775.1,286047008.8,N
1570974776.0,286047008.8,N
1570974795.8,286047010.3,Y
1570974815.6,286047001.9,P
1570974835.5,286047003.8,N
1570974855.3,286047003.1,N
1570974875.1,286047001.7,N
1570974895.9,286047002.7,N
1570974915.7,286047000.2,N
1570974935.6,286047002.1,N
1570974955.4,286047002.9,N
1570974975.2,286047001.8,N
1570974995.1,286047000.2,N
1570974996.0,286047000.2,N
1570975015.8,286047000.0,N
1570975035.7,286047000.7,N
1570975055.5,286046998.1,N
1570975075.3,286046999.7,N
1570975095.2,286046998.5,N
1570975115.0,286046998.2,N
1570975115.9,286046998.2,N
1570975135.7,286046998.4,N
1570975155.6,286046996.6,N
1570975175.4,286046999.4,N
1570975195.3,286047000.0,N
